GW2897 Weather Reports


time (UTC)temp
F
wind
direction
speed
knots
gust
knots
rain 1hr
in
rain 24hr
in
rain mn
in
humidity
%
barometer
mb
20260504000004 65 0 0.0 0.0 0.00 0.08 0.00 61 1015.6
20260503235403 67 122 0.0 0.9 0.00 0.08 0.00 57 1015.7
20260503234503 69 136 0.0 0.9 0.00 0.08 0.00 55 1015.8
20260503233629 70 201 0.0 0.9 0.00 0.08 0.00 50 1015.8
20260503232704 70 265 0.0 1.7 0.00 0.08 0.00 48 1015.8
20260503231804 70 275 0.9 2.6 0.00 0.08 0.00 48 1015.8
20260503230903 70 259 0.9 4.3 0.00 0.08 0.00 44 1016.0
20260503230026 72 284 0.0 4.3 0.00 0.08 0.00 47 1016.0
20260503225404 72 279 0.0 1.7 0.00 0.08 0.00 45 1016.0
20260503224503 70 266 1.7 4.3 0.00 0.08 0.00 44 1016.1
20260503223603 70 263 1.7 6.1 0.00 0.08 0.00 41 1016.1
20260503222703 70 284 2.6 6.1 0.00 0.08 0.00 43 1016.1
20260503221803 69 290 3.5 7.0 0.00 0.08 0.00 42 1016.1
20260503220920 70 269 2.6 6.1 0.00 0.08 0.00 44 1016.0
20260503220003 70 281 1.7 5.2 0.00 0.08 0.00 46 1016.0
20260503215404 70 290 2.6 6.1 0.00 0.08 0.00 47 1016.1
20260503214504 69 292 4.3 9.6 0.00 0.08 0.00 44 1016.1
20260503213603 70 284 2.6 7.0 0.00 0.08 0.00 45 1016.0
20260503212724 69 273 2.6 8.7 0.00 0.08 0.00 45 1016.1
20260503211803 69 272 2.6 8.7 0.00 0.08 0.00 47 1016.1
20260503210903 69 291 4.3 9.6 0.00 0.08 0.00 46 1016.2
20260503210005 69 295 2.6 7.0 0.00 0.08 0.00 48 1016.3
20260503205425 68 293 3.5 11.3 0.00 0.08 0.00 51 1016.2
20260503204503 68 282 4.3 11.3 0.00 0.08 0.00 47 1016.4
20260503203603 69 297 4.3 11.3 0.00 0.08 0.00 46 1016.5
20260503202724 68 292 3.5 11.3 0.00 0.08 0.00 47 1016.5
20260503201803 68 296 4.3 10.4 0.00 0.08 0.00 46 1016.7
20260503200925 68 286 5.2 11.3 0.00 0.08 0.00 50 1016.8
20260503200024 68 287 4.3 9.6 0.00 0.08 0.00 47 1017.0
20260503195425 68 278 2.6 9.6 0.00 0.08 0.00 46 1017.1
20260503194512 68 290 2.6 6.1 0.00 0.08 0.00 48 1017.3
20260503193626 68 229 1.7 8.7 0.00 0.08 0.00 50 1017.5
20260503192705 68 294 1.7 7.8 0.00 0.08 0.00 49 1017.7
20260503191901 68 279 2.6 7.0 0.00 0.08 0.00 49 1017.9
20260503190903 67 284 2.6 7.0 0.00 0.08 0.00 50 1018.1
20260503190004 68 149 2.6 6.1 0.00 0.08 0.00 49 1018.3
20260503185403 67 251 2.6 6.1 0.00 0.08 0.00 50 1018.3
20260503184503 67 268 2.6 7.0 0.00 0.08 0.00 51 1018.4
20260503183603 66 293 1.7 7.0 0.00 0.08 0.00 53 1018.5
20260503182704 66 274 1.7 8.7 0.00 0.08 0.00 51 1018.6
20260503181803 66 199 1.7 7.0 0.00 0.08 0.00 51 1018.8
20260503180005 65 278 1.7 8.7 0.00 0.08 0.00 50 1018.9
20260503175404 65 286 3.5 8.7 0.00 0.08 0.00 52 1018.9
20260503174505 65 211 2.6 7.8 0.00 0.08 0.00 48 1018.9
20260503173605 65 258 3.5 13.0 0.00 0.08 0.00 51 1019.0
20260503172706 66 270 1.7 6.1 0.00 0.08 0.00 51 1019.0
20260503171850 65 279 3.5 8.7 0.00 0.08 0.00 50 1019.2
20260503170905 66 110 0.9 3.5 0.00 0.08 0.00 52 1019.2
20260503150904 60 75 1.7 4.3 0.00 0.09 0.00 62 1020.3
20260503130904 50 316 0.9 7.0 0.00 0.10 0.00 89 1019.7
20260503080904 46 0 0.0 0.0 0.00 0.28 0.00 96 1016.6
20260503072725 47 297 0.0 1.7 0.00 0.30 0.00 97 1016.2
20260503071810 47 0 0.0 0.0 0.00 0.30 0.00 96 1016.1
20260503070905 46 0 0.0 0.0 0.00 0.30 0.00 96 1016.0
20260503054504 48 0 0.0 0.0 0.00 0.30 0.00 96 1016.1
20260503053605 47 0 0.0 0.0 0.00 0.30 0.00 96 1016.1
20260503052704 47 0 0.0 0.0 0.00 0.30 0.00 95 1016.1
20260503051826 47 0 0.0 0.0 0.00 0.30 0.00 95 1016.1
20260503050925 48 0 0.0 0.0 0.00 0.30 0.00 95 1016.0
20260503050025 48 0 0.0 0.0 0.00 0.30 0.00 95 1015.9
20260503045404 48 0 0.0 0.0 0.00 0.30 0.00 95 1015.8
20260503044504 48 0 0.0 0.0 0.00 0.30 0.00 95 1015.7
20260503043625 48 0 0.0 0.0 0.00 0.30 0.00 95 1015.6
20260503042704 49 0 0.0 0.0 0.00 0.30 0.00 94 1015.5
20260503041825 49 0 0.0 0.0 0.00 0.30 0.00 94 1015.5
20260503040904 50 0 0.0 0.0 0.00 0.30 0.00 94 1015.5
20260503040005 50 0 0.0 0.0 0.00 0.30 0.00 94 1015.4
20260503035404 50 0 0.0 0.0 0.00 0.30 0.30 94 1015.4
20260503034504 51 0 0.0 0.0 0.00 0.30 0.30 94 1015.3
20260503033613 51 0 0.0 0.0 0.00 0.30 0.30 94 1015.3
20260503032704 52 0 0.0 0.0 0.00 0.30 0.30 94 1015.2
20260503031826 52 289 0.9 2.6 0.00 0.30 0.30 94 1015.2
20260503030904 52 255 0.0 1.7 0.00 0.30 0.30 94 1015.1
20260503030030 52 249 0.0 1.7 0.00 0.30 0.30 94 1015.0
20260503025404 52 244 0.0 0.9 0.00 0.30 0.30 94 1015.0
20260503024525 52 281 0.9 1.7 0.00 0.30 0.30 94 1014.8
20260503023604 52 276 0.0 1.7 0.01 0.30 0.30 93 1014.6
20260503022705 52 129 0.0 2.6 0.02 0.30 0.30 93 1014.4
20260503021804 52 131 0.0 2.6 0.03 0.30 0.30 93 1014.2
20260503020906 52 121 0.9 2.6 0.06 0.30 0.30 93 1014.1
20260503020025 53 118 0.0 2.6 0.08 0.30 0.30 92 1014.3
20260503015425 53 128 0.9 4.3 0.08 0.30 0.30 92 1014.1
20260503014525 53 156 1.7 4.3 0.08 0.30 0.30 91 1013.8
20260503013604 54 138 0.9 3.5 0.07 0.29 0.29 91 1014.1
20260503012704 55 171 0.9 2.6 0.06 0.28 0.28 91 1014.1
20260503011805 55 284 1.7 6.1 0.05 0.27 0.27 91 1014.1
20260503010925 56 302 3.5 6.1 0.02 0.24 0.24 91 1013.9
20260503010004 56 284 0.9 6.1 0.00 0.22 0.22 90 1013.4
20260503005425 56 109 0.0 0.9 0.00 0.22 0.22 89 1013.4
20260503004504 56 109 0.0 0.9 0.00 0.22 0.22 88 1012.8
20260503003604 56 0 0.0 0.0 0.00 0.22 0.22 88 1012.7
20260503002725 57 122 0.0 0.9 0.00 0.22 0.22 88 1012.3
20260503001804 57 122 0.0 0.9 0.00 0.22 0.22 88 1012.3
20260503000904 57 120 0.0 0.9 0.00 0.22 0.22 87 1012.0